Location: Hains Lake
(37.8540°N, 99.8578°W)
Time: 04:20:44
(UTC+00:00)

Tiros 1 despin weight - Pass Details

Date: 23 April 2021
Orbit: 593 x 642 km, 48.2° (Epoch: 07 May)

Event Time Altitude Azimuth Distance (km) Brightness Sun altitude
Rises 14:22:55 0° 302° (WNW) 2,894 ? 28.5°
Reaches altitude 10° 14:25:35 10° 316° (NW) 1,977 ? 29.0°
Maximum altitude 14:29:23 26° 13° (NNE) 1,217 ? 29.7°
Drops below altitude 10° 14:33:09 10° 70° (ENE) 1,948 ? 30.5°
Sets 14:35:44 0° 83° (E) 2,842 ? 31.0°
